This is the latest recevied weather packets stored in our database for station/object NL3D. If no packets are shown the sender has not sent any weather packets the latest 10 day(s).
| Time | Temp. | Humidity | Pressure | Rain* | Wind** | Luminosity | Snow |
|---|---|---|---|---|---|---|---|
| 1777501933 | 10° C | 35% | 1017.1 hPa | 0 mm | - | 603 W/m² | - |
| 1777501628 | 10° C | 37% | 1017.1 hPa | 0 mm | - | 284 W/m² | - |
| 1777501324 | 10° C | 38% | 1017.3 hPa | 0 mm | - | 226 W/m² | - |
| 1777501023 | 10° C | 37% | 1017.2 hPa | 0 mm | - | 315 W/m² | - |
| 1777500720 | 10° C | 38% | 1017.4 hPa | 0 mm | - | 473 W/m² | - |
| 1777500416 | 10° C | 40% | 1017.3 hPa | 0 mm | - | 457 W/m² | - |
| 1777500113 | 9.44° C | 40% | 1017.4 hPa | 0 mm | - | 358 W/m² | - |
| 1777499810 | 9.44° C | 39% | 1017.6 hPa | 0 mm | - | 446 W/m² | - |
| 1777499506 | 9.44° C | 42% | 1017.7 hPa | 0 mm | - | 445 W/m² | - |
| 1777499204 | 9.44° C | 40% | 1017.6 hPa | 0 mm | - | 236 W/m² | - |
| 1777498900 | 9.44° C | 40% | 1017.6 hPa | 0 mm | - | 505 W/m² | - |
| 1777498598 | 10° C | 40% | 1017.8 hPa | 0 mm | - | 656 W/m² | - |
| 1777498293 | 9.44° C | 39% | 1017.7 hPa | 0 mm | - | 470 W/m² | - |
| 1777497992 | 10° C | 39% | 1018.1 hPa | 0 mm | - | 628 W/m² | - |
| 1777497687 | 8.89° C | 41% | 1018 hPa | 0 mm | - | 603 W/m² | - |
| 1777497385 | 9.44° C | 40% | 1018 hPa | 0 mm | - | 535 W/m² | - |
| 1777497080 | 9.44° C | 41% | 1018.2 hPa | 0 mm | - | 499 W/m² | - |
| 1777496777 | 8.33° C | 43% | 1018.2 hPa | 0 mm | - | 552 W/m² | - |
| 1777496474 | 8.33° C | 45% | 1018.3 hPa | 0 mm | - | 282 W/m² | - |
| 1777496171 | 8.33° C | 44% | 1018.3 hPa | 0 mm | - | 310 W/m² | - |
| 1777495867 | 8.33° C | 45% | 1018.4 hPa | 0 mm | - | 224 W/m² | - |
| 1777495568 | 7.78° C | 44% | 1018.6 hPa | 0 mm | - | 287 W/m² | - |
| 1777495258 | 8.33° C | 43% | 1018.6 hPa | 0 mm | - | 232 W/m² | - |
| 1777494956 | 8.33° C | 46% | 1018.7 hPa | 0 mm | - | 253 W/m² | - |
| 1777494653 | 8.33° C | 46% | 1018.6 hPa | 0 mm | - | 219 W/m² | - |
* Rain latest hour (hover to see other rain measurements)
** Current wind speed in m/s (hover to see current wind gust speed)